SCOUT X-4 DEB, 724

Orbit data source: Space-Track

SCOUT X-4 DEB, 724 is space debris in LEO originally from a launch on Thu, 19 Dec 1963 UTC launched from the Air Force Western Test Range (AFWTR). Debris objects in space refer to the collection of defunct objects orbiting the Earth. Examples of debris include non-operational satellites, rocket bodies, and fragments generated from explosions, collisions, or faulty payload assembly.

Loading next visibility...
SCOUT X-4 DEB details
Identifier
724, 1963-053E
Orbit
LEO
Last TLE update11 hours ago
Origin
Flag of USNASA LaRC (US)
ManufacturerUnknown
MissionSpacecraft
Bus & MotorUnknown
MassUnknown
Launch date (UTC)
1963-12-19 (61 years ago)
Launch vehicleUnknown
Launch site
Air Force Western Test Range (AFWTR)
Object type
Payload
Rocket body
Debris
Shape & HBRUnknown
Radar Cross SectionSmall (<0.1 m²)

Expand to show TLE details & history

TLE from 11 hours ago
0 SCOUT X-4 DEB
1 00724U 63053E   24356.78161700  .00155151  00000-0  15063-1 0  9994
2 00724  78.5657 118.2335 0173048 151.3278 209.7575 14.81315645939752
Epoch: 2024-12-21T18:45Z
Definitive object data (Epoch: 2024-12-21T18:45:31.708Z)
Latitude-0.00003°
Longitude106.02353°
Altitude733.808 km
Speed7.431 km/s
True Right ascension07h 52m 56s
True Declination0° 00' 00"
Sunlit
Object was in full shadow at TLE epoch
Visualization TLE readout
Latitude28.52396°
Longitude111.61997°
Altitude688.689 km
Speed7.482 km/s
Apparent Right ascension11h 42m 00s
Apparent Declination-9° 20' 31"
Sunlit
Object is in full shadow
Visualization observer readout
Local Sidereal Time05:19:05
Azimuth93.573° ESE
Elevation-10.352°
Doppler factor1
Orbital elements
Apogee altitude743.548 km
Perigee altitude501.262 km
Semi-major axis7,000.542 km
Eccentricity0.0173048
Inclination78.5657°
RAAN118.2335°
Arg. of periapsis151.3278°
True anomaly208.79149°
Mean anomaly209.7575°
Eccentric anomaly209.27269°
Mean motion3.70549 °/min
BSTAR0.015063
Orbital period97.15 mins
Loading maneuver chart data...
Loading historical data...
Loading historical data...
Loading historical data...
Loading historical data...
Loading historical data...
Loading historical data...
Loading historical data...

SCOUT X-4 DEB Visibility forecast

Observer location: undefined°, undefined

Span
Click to sort rows by Start time (UTC) header in descending order
Start Az.
Max El. time (UTC)
Max El. Az.
Max El.
End time (UTC)
End Az.
8 mins2024-12-22 09:28:22.356Z199.786° SSW2024-12-22 09:32:22.356Z302.254° NW43.479°2024-12-22 09:36:22.356Z8.009° NNE
5 mins2024-12-22 19:39:22.356Z8.868° NNE2024-12-22 19:41:22.356Z69.348° E36.757°2024-12-22 19:44:22.356Z147.001° SSE
|